Location: Bacharowice
(49.9333°N, 19.5833°E)
Time: 11:41:57
(UTC+00:00)

USA 305 - Pass Details

Date: 22 September 2021
Orbit: 547 x 588 km, 54.0° (Epoch: 03 October)

Event Time Altitude Azimuth Distance (km) Brightness Sun altitude
Rises 17:07:55 0° 267° (W) 2,731 8.7 -5.4°
Reaches altitude 10° 17:10:11 10° 272° (W) 1,843 7.4 -5.7°
Maximum altitude 17:14:17 52° 350° (N) 702 3.5 -6.4°
Drops below altitude 10° 17:18:27 10° 68° (ENE) 1,870 5.0 -7.1°
Enters shadow 17:19:18 - 70° (ENE) 2,198 5.3 -7.2°
